Simultaneous Nadir Overpasses (SNOs) Predictions

Prediction of SNOs between GOES-17 and METOP-B Satellite Orbit:

Table of predicted SNOs for the next 14.0 days since TLE Epoch: 10/16/2021
Index Date Time (GOES-17) GOES-17 Lat,Lon METOP-B Lat,Lon Distance(km) Time Diff (sec)
1 10/17/2021 06:48:11 0.05,-137.20 -0.32,-138.93 196.32 80
2 10/18/2021 06:24:52 0.05,-137.20 0.78,-133.93 372.70 80
3 10/19/2021 18:43:44 -0.05,-137.20 0.22,-138.50 147.27 80
4 10/20/2021 18:25:45 -0.05,-137.20 -0.88,-133.50 421.54 80
5 10/22/2021 06:44:45 0.05,-137.19 -0.17,-138.09 103.10 80
6 10/23/2021 06:21:26 0.04,-137.18 0.98,-133.11 465.23 80
7 10/24/2021 18:40:18 -0.04,-137.17 0.08,-137.66 56.11 80
8 10/27/2021 06:41:18 0.03,-137.14 -0.02,-137.25 14.37 80
9 10/29/2021 18:39:31 -0.03,-137.09 -0.07,-136.82 30.68 80
